Extreme high temperature From: 16-07-2018 05:00 Until: 19:00 warning for: Extreme high temperature Level: Yellow info button
suomi:
Hellevaroitus: Lähivuorokauden aikana on odotettavissa tukalaa hellettä.

svenska:
Varning för värmebölja: Under det närmaste dygnet är den svåra hettan att vänta.

english:
Heat wave warning: Warm weather is expected during the coming 24 hours. 


Thunder radar more information blitzortung!


Löydät sääaseman tiedot myös:

European Weather Network

Finland Weather Exchange

Weather Underground

AWEKAS



Weather Underground säähistoriasivu

Päivittäin yhteenveto Marraskuu 10, 2017 Yksiköt:  Metriset    Englantilaiset   Molemmat
« Edellinen Päivä
Seuraava Päivä »
Päivittäin Viikoittain Kuukausittain Vuosittain Mukautettu
  Korkea: Matala: Keskiarvo:
Lämpötila: -17.8 °C -16.2 °C -15.4 °C
Kastepiste: -17.8 °C -16.8 °C -16.1 °C
Kosteus: Humidity % 84 % 91 %
Tuulen nopeus: 0 km/h 0 km/h 0 km/h
Tuulenpuuska: 0 km/h - -
Tuuli:- - North
Ilmanpaine: 0 hPa 33568.8 hPa -
Sade: 0 mm    
Historical Graphs
 
 
Taulukkotiedot Marraskuu 10, 2017
Aika Lämpötila Kastepiste Ilmanpaine Tuuli Tuulen nopeus Tuulenpuuska Kosteus Sademäärä (tunneittain)
-17.8 °C -17.8 °C 0 hPa Calm     Humidity % 0 mm
00:00 -14.6 °C -14.9 °C 33626.4 hPa Calm     96 % 0 mm
00:15 -14.5 °C -14.8 °C 33626.4 hPa Calm     96 % 0 mm
00:30 -14.5 °C -14.9 °C 33626.4 hPa Calm     95 % 0 mm
00:45 -14.5 °C -14.9 °C 33626.4 hPa Calm     95 % 0 mm
01:00 -14.6 °C -14.9 °C 33616.2 hPa Calm     95 % 0 mm
01:15 -14.6 °C -14.9 °C 33616.2 hPa Calm     95 % 0 mm
01:30 -14.6 °C -15.1 °C 33602.7 hPa Calm     94 % 0 mm
01:45 -14.6 °C -15.1 °C 33616.2 hPa Calm     94 % 0 mm
02:00 -14.6 °C -15.1 °C 33602.7 hPa Calm     94 % 0 mm
02:15 -14.6 °C -15.1 °C 33602.7 hPa Calm     94 % 0 mm
02:30 -14.7 °C -15.2 °C 33602.7 hPa Calm     94 % 0 mm
02:45 -14.8 °C -15.2 °C 33602.7 hPa Calm     94 % 0 mm
03:00 -14.8 °C -15.2 °C 33592.5 hPa Calm     94 % 0 mm
03:15 -14.8 °C -15.2 °C 33592.5 hPa Calm     94 % 0 mm
03:30 -14.8 °C -15.3 °C 33592.5 hPa Calm     94 % 0 mm
03:45 -14.8 °C -15.3 °C 33592.5 hPa Calm     93 % 0 mm
04:15 -14.8 °C -15.4 °C 33582.3 hPa Calm     93 % 0 mm
04:30 -14.9 °C -15.4 °C 33568.8 hPa Calm     93 % 0 mm
04:45 -14.9 °C -15.5 °C 33568.8 hPa Calm     93 % 0 mm
05:00 -14.9 °C -15.4 °C 33568.8 hPa Calm     93 % 0 mm
05:15 -14.9 °C -15.5 °C 33568.8 hPa Calm     93 % 0 mm
05:30 -14.9 °C -15.5 °C 33568.8 hPa Calm     93 % 0 mm
05:45 -14.9 °C -15.5 °C 33568.8 hPa Calm     93 % 0 mm
06:00 -15 °C -15.7 °C 33582.3 hPa Calm     92 % 0 mm
06:15 -15.1 °C -15.8 °C 33568.8 hPa Calm     91 % 0 mm
06:30 -15.1 °C -15.8 °C 33568.8 hPa Calm     92 % 0 mm
06:45 -15.2 °C -15.9 °C 33568.8 hPa Calm     92 % 0 mm
07:00 -15.4 °C -16 °C 33568.8 hPa Calm     93 % 0 mm
07:15 -15.5 °C -16.1 °C 33582.3 hPa Calm     93 % 0 mm
07:30 -15.6 °C -16.1 °C 33592.5 hPa Calm     94 % 0 mm
07:45 -15.7 °C -16.2 °C 33592.5 hPa Calm     94 % 0 mm
08:00 -15.7 °C -16.2 °C 33592.5 hPa Calm     94 % 0 mm
08:15 -15.8 °C -16.3 °C 33592.5 hPa Calm     94 % 0 mm
08:30 -15.9 °C -16.4 °C 33592.5 hPa Calm     94 % 0 mm
08:45 -16.1 °C -16.4 °C 33602.7 hPa Calm     95 % 0 mm
09:00 -16.1 °C -16.5 °C 33602.7 hPa Calm     95 % 0 mm
09:15 -16.2 °C -16.6 °C 33616.2 hPa Calm     95 % 0 mm
09:30 -16.2 °C -16.6 °C 33616.2 hPa Calm     95 % 0 mm
09:45 -16.2 °C -16.5 °C 33616.2 hPa Calm     96 % 0 mm
10:00 -16.2 °C -16.5 °C 33616.2 hPa Calm     96 % 0 mm
10:15 -16.2 °C -16.5 °C 33626.4 hPa Calm     96 % 0 mm
10:30 -16.1 °C -16.5 °C 33626.4 hPa Calm     95 % 0 mm
10:45 -16.1 °C -16.4 °C 33626.4 hPa Calm     95 % 0 mm
11:00 -16 °C -16.4 °C 33626.4 hPa Calm     95 % 0 mm
11:15 -15.9 °C -16.3 °C 33639.9 hPa Calm     94 % 0 mm
11:30 -15.7 °C -16.2 °C 33639.9 hPa Calm     94 % 0 mm
11:45 -15.6 °C -16.1 °C 33639.9 hPa Calm     93 % 0 mm
12:00 -15.4 °C -16.1 °C 33639.9 hPa Calm     92 % 0 mm
12:15 -15.4 °C -16.1 °C 33639.9 hPa Calm     92 % 0 mm
12:30 -15.3 °C -15.9 °C 33639.9 hPa Calm     92 % 0 mm
12:45 -15.2 °C -15.9 °C 33639.9 hPa Calm     91 % 0 mm
13:00 -15.1 °C -15.9 °C 33639.9 hPa Calm     91 % 0 mm
13:15 -15.2 °C -16 °C 33639.9 hPa Calm     90 % 0 mm
13:30 -15.2 °C -16.1 °C 33639.9 hPa Calm     90 % 0 mm
13:45 -15.2 °C -16 °C 33650.1 hPa Calm     90 % 0 mm
14:00 -15.2 °C -16.1 °C 33639.9 hPa Calm     89 % 0 mm
14:15 -15.1 °C -16.1 °C 33639.9 hPa Calm     88 % 0 mm
14:30 -15.1 °C -16.1 °C 33626.4 hPa Calm     88 % 0 mm
14:45 -15.2 °C -16.2 °C 33626.4 hPa Calm     88 % 0 mm
15:00 -15.2 °C -16.2 °C 33639.9 hPa Calm     88 % 0 mm
15:15 -15.2 °C -16.3 °C 33639.9 hPa Calm     87 % 0 mm
15:30 -15.3 °C -16.4 °C 33639.9 hPa Calm     87 % 0 mm
15:45 -15.3 °C -16.3 °C 33639.9 hPa Calm     88 % 0 mm
16:00 -15.3 °C -16.3 °C 33639.9 hPa Calm     88 % 0 mm
16:15 -15.4 °C -16.4 °C 33639.9 hPa Calm     88 % 0 mm
16:30 -15.4 °C -16.4 °C 33639.9 hPa Calm     88 % 0 mm
16:45 -15.4 °C -16.4 °C 33639.9 hPa Calm     87 % 0 mm
17:00 -15.4 °C -16.4 °C 33639.9 hPa Calm     87 % 0 mm
17:15 -15.3 °C -16.6 °C 33639.9 hPa Calm     85 % 0 mm
17:30 -15.4 °C -16.8 °C 33639.9 hPa Calm     84 % 0 mm
17:45 -15.6 °C -16.8 °C 33639.9 hPa Calm     86 % 0 mm
18:00 -15.7 °C -16.8 °C 33639.9 hPa Calm     87 % 0 mm
18:15 -15.7 °C -16.7 °C 33639.9 hPa Calm     88 % 0 mm
18:30 -15.7 °C -16.7 °C 33639.9 hPa Calm     88 % 0 mm
18:45 -15.8 °C -16.7 °C 33639.9 hPa Calm     89 % 0 mm
19:00 -15.8 °C -16.7 °C 33639.9 hPa Calm     89 % 0 mm
19:15 -15.8 °C -16.7 °C 33626.4 hPa Calm     89 % 0 mm
19:30 -15.8 °C -16.7 °C 33626.4 hPa Calm     90 % 0 mm
19:45 -15.9 °C -16.8 °C 33626.4 hPa Calm     90 % 0 mm
20:00 -16.1 °C -16.8 °C 33626.4 hPa Calm     91 % 0 mm
20:15 -16.2 °C -16.8 °C 33626.4 hPa Calm     92 % 0 mm
20:30 -16.2 °C -16.7 °C 33626.4 hPa Calm     93 % 0 mm
20:45 -16.2 °C -16.7 °C 33639.9 hPa Calm     93 % 0 mm
21:00 -16.2 °C -16.7 °C 33639.9 hPa Calm     93 % 0 mm
21:15 -16.2 °C -16.6 °C 33626.4 hPa Calm     94 % 0 mm
21:30 -16.1 °C -16.6 °C 33626.4 hPa Calm     94 % 0 mm
21:45 -16 °C -16.5 °C 33626.4 hPa Calm     94 % 0 mm
22:00 -16 °C -16.5 °C 33626.4 hPa Calm     94 % 0 mm
22:15 -16 °C -16.5 °C 33626.4 hPa Calm     94 % 0 mm
22:30 -15.9 °C -16.4 °C 33626.4 hPa Calm     94 % 0 mm
22:45 -15.9 °C -16.4 °C 33626.4 hPa Calm     94 % 0 mm
23:00 -15.9 °C -16.4 °C 33626.4 hPa Calm     94 % 0 mm
23:15 -15.9 °C -16.4 °C 33626.4 hPa Calm     94 % 0 mm
23:30 -15.9 °C -16.4 °C 33626.4 hPa Calm     94 % 0 mm
23:45 -15.9 °C -16.4 °C 33626.4 hPa Calm     94 % 0 mm
Esan sääasema
Terveisin Weather Underground - 2.75 mb

Alkuperäinen skripti  Jim McMurry - jmcmurry@mwt.net Sovitettu myös templatelle  Wim van der Kuil - Leuven-Template.eu

Laitteet joita käytämme:

Sääasema
Davis VP2

Sääasemaohjelma
Cumulus

Sääaseman tietokone
Asus EeePC

Palveluntarjoaja
Suncomet

Davis VP2

Cumulus

Asus EeePC

Suncomet